Year,Month,Day,Hour,Minute,Value (Times are PST for temperature in C)
2009,07,03,00,00,16.60
2009,07,03,00,01,16.50
2009,07,03,00,02,16.40
2009,07,03,00,03,16.40
2009,07,03,00,04,16.40
2009,07,03,00,05,16.40
2009,07,03,00,06,16.30
2009,07,03,00,07,16.30
2009,07,03,00,08,16.30
2009,07,03,00,09,16.30
2009,07,03,00,10,16.20
2009,07,03,00,11,16.20
2009,07,03,00,12,16.20
2009,07,03,00,13,16.20
2009,07,03,00,14,16.10
2009,07,03,00,15,16.10
2009,07,03,00,16,16.10
2009,07,03,00,17,16.10
2009,07,03,00,18,16.10
2009,07,03,00,19,16.00
2009,07,03,00,20,15.90
2009,07,03,00,21,15.90
2009,07,03,00,22,15.90
2009,07,03,00,23,15.90
2009,07,03,00,24,15.80
2009,07,03,00,25,15.80
2009,07,03,00,26,15.80
2009,07,03,00,27,15.80
2009,07,03,00,28,15.80
2009,07,03,00,29,15.70
2009,07,03,00,30,15.70
2009,07,03,00,31,15.60
2009,07,03,00,32,15.60
2009,07,03,00,33,15.50
2009,07,03,00,34,15.50
2009,07,03,00,35,15.50
2009,07,03,00,36,15.40
2009,07,03,00,37,15.40
2009,07,03,00,38,15.30
2009,07,03,00,39,15.30
2009,07,03,00,40,15.30
2009,07,03,00,41,15.30
2009,07,03,00,42,15.30
2009,07,03,00,43,15.30
2009,07,03,00,44,15.30
2009,07,03,00,45,15.30
2009,07,03,00,46,15.30
2009,07,03,00,47,15.30
2009,07,03,00,48,15.20
2009,07,03,00,49,15.20
2009,07,03,00,50,15.20
2009,07,03,00,51,15.10
2009,07,03,00,52,15.10
2009,07,03,00,53,15.10
2009,07,03,00,54,15.00
2009,07,03,00,55,15.00
2009,07,03,00,56,15.00
2009,07,03,00,57,15.00
2009,07,03,00,58,15.00
2009,07,03,00,59,14.90
2009,07,03,01,00,14.90
2009,07,03,01,01,14.90
2009,07,03,01,02,14.90
2009,07,03,01,03,14.90
2009,07,03,01,04,14.90
2009,07,03,01,05,14.90
2009,07,03,01,06,14.80
2009,07,03,01,07,14.80
2009,07,03,01,08,14.80
2009,07,03,01,09,14.80
2009,07,03,01,10,14.80
2009,07,03,01,11,14.80
2009,07,03,01,12,14.70
2009,07,03,01,13,14.70
2009,07,03,01,14,14.70
2009,07,03,01,15,14.70
2009,07,03,01,16,14.70
2009,07,03,01,17,14.70
2009,07,03,01,18,14.60
2009,07,03,01,19,14.60
2009,07,03,01,20,14.60
2009,07,03,01,21,14.60
2009,07,03,01,22,14.60
2009,07,03,01,23,14.50
2009,07,03,01,24,14.50
2009,07,03,01,25,14.50
2009,07,03,01,26,14.50
2009,07,03,01,27,14.40
2009,07,03,01,28,14.40
2009,07,03,01,29,14.40
2009,07,03,01,30,14.40
2009,07,03,01,31,14.30
2009,07,03,01,32,14.30
2009,07,03,01,33,14.30
2009,07,03,01,34,14.30
2009,07,03,01,35,14.20
2009,07,03,01,36,14.20
2009,07,03,01,37,14.20
2009,07,03,01,38,14.20
2009,07,03,01,39,14.20
2009,07,03,01,40,14.20
2009,07,03,01,41,14.20
2009,07,03,01,42,14.20
2009,07,03,01,43,14.20
2009,07,03,01,44,14.20
2009,07,03,01,45,14.10
2009,07,03,01,46,14.10
2009,07,03,01,47,14.10
2009,07,03,01,48,14.10
2009,07,03,01,49,14.10
2009,07,03,01,50,14.10
2009,07,03,01,51,14.10
2009,07,03,01,52,14.10
2009,07,03,01,53,14.10
2009,07,03,01,54,14.10
2009,07,03,01,55,14.10
2009,07,03,01,56,14.00
2009,07,03,01,57,14.00
2009,07,03,01,58,14.00
2009,07,03,01,59,14.00
2009,07,03,02,00,14.00
2009,07,03,02,01,14.00
2009,07,03,02,02,13.90
2009,07,03,02,03,13.90
2009,07,03,02,04,13.90
2009,07,03,02,05,13.90
2009,07,03,02,06,13.90
2009,07,03,02,07,13.90
2009,07,03,02,08,13.90
2009,07,03,02,09,13.80
2009,07,03,02,10,13.80
2009,07,03,02,11,13.80
2009,07,03,02,12,13.80
2009,07,03,02,13,13.70
2009,07,03,02,14,13.70
2009,07,03,02,15,13.70
2009,07,03,02,16,13.70
2009,07,03,02,17,13.70
2009,07,03,02,18,13.70
2009,07,03,02,19,13.70
2009,07,03,02,20,13.70
2009,07,03,02,21,13.60
2009,07,03,02,22,13.60
2009,07,03,02,23,13.60
2009,07,03,02,24,13.50
2009,07,03,02,25,13.50
2009,07,03,02,26,13.50
2009,07,03,02,27,13.40
2009,07,03,02,28,13.40
2009,07,03,02,29,13.30
2009,07,03,02,30,13.30
2009,07,03,02,31,13.30
2009,07,03,02,32,13.30
2009,07,03,02,33,13.30
2009,07,03,02,34,13.30
2009,07,03,02,35,13.30
2009,07,03,02,36,13.20
2009,07,03,02,37,13.20
2009,07,03,02,38,13.20
2009,07,03,02,39,13.20
2009,07,03,02,40,13.20
2009,07,03,02,41,13.20
2009,07,03,02,42,13.10
2009,07,03,02,43,13.10
2009,07,03,02,44,13.10
2009,07,03,02,45,13.10
2009,07,03,02,46,13.10
2009,07,03,02,47,13.10
2009,07,03,02,48,13.10
2009,07,03,02,49,13.10
2009,07,03,02,50,13.10
2009,07,03,02,51,13.10
2009,07,03,02,52,13.20
2009,07,03,02,53,13.20
2009,07,03,02,54,13.30
2009,07,03,02,55,13.30
2009,07,03,02,56,13.30
2009,07,03,02,57,13.30
2009,07,03,02,58,13.30
2009,07,03,02,59,13.40
2009,07,03,03,00,13.40
2009,07,03,03,01,13.40
2009,07,03,03,02,13.50
2009,07,03,03,03,13.50
2009,07,03,03,04,13.60
2009,07,03,03,05,13.60
2009,07,03,03,06,13.70
2009,07,03,03,07,13.70
2009,07,03,03,08,13.70
2009,07,03,03,09,13.70
2009,07,03,03,10,13.80
2009,07,03,03,11,13.80
2009,07,03,03,12,13.90
2009,07,03,03,13,13.90
2009,07,03,03,14,13.90
2009,07,03,03,15,13.90
2009,07,03,03,16,13.90
2009,07,03,03,17,13.90
2009,07,03,03,18,13.90
2009,07,03,03,19,13.90
2009,07,03,03,20,13.80
2009,07,03,03,21,13.80
2009,07,03,03,22,13.80
2009,07,03,03,23,13.80
2009,07,03,03,24,13.70
2009,07,03,03,25,13.70
2009,07,03,03,26,13.70
2009,07,03,03,27,13.70
2009,07,03,03,28,13.70
2009,07,03,03,29,13.70
2009,07,03,03,30,13.70
2009,07,03,03,31,13.70
2009,07,03,03,32,13.60
2009,07,03,03,33,13.60
2009,07,03,03,34,13.60
2009,07,03,03,35,13.60
2009,07,03,03,36,13.60
2009,07,03,03,37,13.50
2009,07,03,03,38,13.50
2009,07,03,03,39,13.50
2009,07,03,03,40,13.40
2009,07,03,03,41,13.40
2009,07,03,03,42,13.40
2009,07,03,03,43,13.30
2009,07,03,03,44,13.30
2009,07,03,03,45,13.30
2009,07,03,03,46,13.30
2009,07,03,03,47,13.30
2009,07,03,03,48,13.30
2009,07,03,03,49,13.30
2009,07,03,03,50,13.30
2009,07,03,03,51,13.30
2009,07,03,03,52,13.30
2009,07,03,03,53,13.30
2009,07,03,03,54,13.30
2009,07,03,03,55,13.30
2009,07,03,03,56,13.30
2009,07,03,03,57,13.30
2009,07,03,03,58,13.30
2009,07,03,03,59,13.30
2009,07,03,04,00,13.30
2009,07,03,04,01,13.30
2009,07,03,04,02,13.30
2009,07,03,04,03,13.30
2009,07,03,04,05,13.30
2009,07,03,04,06,13.30
2009,07,03,04,07,13.20
2009,07,03,04,08,13.20
2009,07,03,04,09,13.20
2009,07,03,04,10,13.20
2009,07,03,04,11,13.10
2009,07,03,04,12,13.10
2009,07,03,04,13,13.10
2009,07,03,04,14,13.10
2009,07,03,04,15,13.10
2009,07,03,04,16,13.00
2009,07,03,04,17,13.00
2009,07,03,04,18,13.00
2009,07,03,04,19,13.00
2009,07,03,04,20,12.90
2009,07,03,04,21,12.90
2009,07,03,04,22,12.90
2009,07,03,04,23,12.90
2009,07,03,04,24,12.80
2009,07,03,04,25,12.80
2009,07,03,04,26,12.80
2009,07,03,04,27,12.80
2009,07,03,04,28,12.80
2009,07,03,04,29,12.80
2009,07,03,04,30,12.80
2009,07,03,04,31,12.80
2009,07,03,04,32,12.80
2009,07,03,04,33,12.70
2009,07,03,04,34,12.70
2009,07,03,04,35,12.70
2009,07,03,04,36,12.70
2009,07,03,04,37,12.70
2009,07,03,04,38,12.70
2009,07,03,04,39,12.70
2009,07,03,04,40,12.60
2009,07,03,04,41,12.60
2009,07,03,04,42,12.60
2009,07,03,04,43,12.60
2009,07,03,04,44,12.60
2009,07,03,04,45,12.60
2009,07,03,04,46,12.60
2009,07,03,04,47,12.60
2009,07,03,04,48,12.60
2009,07,03,04,49,12.60
2009,07,03,04,50,12.60
2009,07,03,04,51,12.60
2009,07,03,04,52,12.60
2009,07,03,04,53,12.60
2009,07,03,04,54,12.60
2009,07,03,04,55,12.60
2009,07,03,04,56,12.50
2009,07,03,04,57,12.50
2009,07,03,04,58,12.50
2009,07,03,04,59,12.50
2009,07,03,05,00,12.50
2009,07,03,05,01,12.40
2009,07,03,05,02,12.40
2009,07,03,05,03,12.40
2009,07,03,05,04,12.30
2009,07,03,05,05,12.30
2009,07,03,05,06,12.30
2009,07,03,05,07,12.30
2009,07,03,05,08,12.30
2009,07,03,05,09,12.30
2009,07,03,05,10,12.30
2009,07,03,05,11,12.20
2009,07,03,05,12,12.20
2009,07,03,05,13,12.20
2009,07,03,05,14,12.10
2009,07,03,05,15,12.10
2009,07,03,05,16,12.10
2009,07,03,05,17,12.10
2009,07,03,05,18,12.10
2009,07,03,05,19,12.10
2009,07,03,05,20,12.00
2009,07,03,05,21,12.00
2009,07,03,05,22,12.00
2009,07,03,05,23,12.00
2009,07,03,05,24,11.90
2009,07,03,05,25,11.90
2009,07,03,05,26,11.80
2009,07,03,05,27,11.80
2009,07,03,05,28,11.80
2009,07,03,05,29,11.80
2009,07,03,05,30,11.80
2009,07,03,05,31,11.70
2009,07,03,05,32,11.70
2009,07,03,05,33,11.70
2009,07,03,05,34,11.70
2009,07,03,05,35,11.60
2009,07,03,05,36,11.60
2009,07,03,05,37,11.60
2009,07,03,05,38,11.60
2009,07,03,05,39,11.60
2009,07,03,05,40,11.60
2009,07,03,05,41,11.60
2009,07,03,05,42,11.50
2009,07,03,05,43,11.40
2009,07,03,05,44,11.40
2009,07,03,05,45,11.40
2009,07,03,05,46,11.40
2009,07,03,05,47,11.40
2009,07,03,05,48,11.40
2009,07,03,05,49,11.40
2009,07,03,05,50,11.40
2009,07,03,05,51,11.40
2009,07,03,05,52,11.40
2009,07,03,05,53,11.40
2009,07,03,05,54,11.40
2009,07,03,05,55,11.40
2009,07,03,05,56,11.40
2009,07,03,05,57,11.40
2009,07,03,05,58,11.40
2009,07,03,05,59,11.40
2009,07,03,06,00,11.40
2009,07,03,06,01,11.40
2009,07,03,06,02,11.50
2009,07,03,06,03,11.60
2009,07,03,06,04,11.60
2009,07,03,06,05,11.60
2009,07,03,06,06,11.60
2009,07,03,06,07,11.60
2009,07,03,06,08,11.70
2009,07,03,06,09,11.80
2009,07,03,06,10,11.80
2009,07,03,06,11,11.90
2009,07,03,06,12,11.90
2009,07,03,06,13,12.00
2009,07,03,06,14,12.10
2009,07,03,06,15,12.20
2009,07,03,06,16,12.20
2009,07,03,06,17,12.30
2009,07,03,06,18,12.30
2009,07,03,06,19,12.40
2009,07,03,06,20,12.40
2009,07,03,06,21,12.50
2009,07,03,06,22,12.60
2009,07,03,06,23,12.60
2009,07,03,06,24,12.70
2009,07,03,06,25,12.80
2009,07,03,06,26,12.90
2009,07,03,06,27,13.00
2009,07,03,06,28,13.10
2009,07,03,06,29,13.20
2009,07,03,06,30,13.20
2009,07,03,06,31,13.30
2009,07,03,06,32,13.40
2009,07,03,06,33,13.50
2009,07,03,06,34,13.60
2009,07,03,06,35,13.60
2009,07,03,06,36,13.70
2009,07,03,06,37,13.70
2009,07,03,06,38,13.70
2009,07,03,06,39,13.80
2009,07,03,06,40,13.90
2009,07,03,06,41,13.90
2009,07,03,06,42,14.00
2009,07,03,06,43,14.10
2009,07,03,06,44,14.20
2009,07,03,06,45,14.20
2009,07,03,06,46,14.20
2009,07,03,06,47,14.20
2009,07,03,06,48,14.20
2009,07,03,06,49,14.40
2009,07,03,06,50,14.40
2009,07,03,06,51,14.50
2009,07,03,06,52,14.60
2009,07,03,06,53,14.70
2009,07,03,06,54,14.80
2009,07,03,06,55,14.80
2009,07,03,06,56,14.90
2009,07,03,06,57,14.90
2009,07,03,06,58,15.00
2009,07,03,06,59,15.10
2009,07,03,07,00,15.20
2009,07,03,07,01,15.30
2009,07,03,07,02,15.30
2009,07,03,07,03,15.40
2009,07,03,07,04,15.50
2009,07,03,07,05,15.50
2009,07,03,07,06,15.70
2009,07,03,07,07,15.80
2009,07,03,07,08,15.80
2009,07,03,07,09,15.90
2009,07,03,07,10,16.10
2009,07,03,07,11,16.20
2009,07,03,07,12,16.30
2009,07,03,07,13,16.40
2009,07,03,07,14,16.50
2009,07,03,07,15,16.60
2009,07,03,07,16,16.70
2009,07,03,07,17,16.70
2009,07,03,07,18,16.80
2009,07,03,07,19,16.90
2009,07,03,07,20,16.90
2009,07,03,07,21,17.00
2009,07,03,07,22,17.10
2009,07,03,07,23,17.20
2009,07,03,07,24,17.30
2009,07,03,07,25,17.30
2009,07,03,07,26,17.50
2009,07,03,07,27,17.50
2009,07,03,07,28,17.60
2009,07,03,07,29,17.70
2009,07,03,07,30,17.70
2009,07,03,07,31,17.80
2009,07,03,07,32,17.80
2009,07,03,07,33,17.80
2009,07,03,07,34,17.80
2009,07,03,07,35,17.90
2009,07,03,07,36,17.90
2009,07,03,07,37,17.90
2009,07,03,07,38,18.00
2009,07,03,07,39,18.10
2009,07,03,07,40,18.20
2009,07,03,07,41,18.20
2009,07,03,07,42,18.20
2009,07,03,07,43,18.20
2009,07,03,07,44,18.20
2009,07,03,07,45,18.20
2009,07,03,07,46,18.30
2009,07,03,07,47,18.40
2009,07,03,07,48,18.50
2009,07,03,07,49,18.60
2009,07,03,07,50,18.60
2009,07,03,07,51,18.80
2009,07,03,07,52,18.90
2009,07,03,07,53,19.00
2009,07,03,07,54,19.10
2009,07,03,07,55,19.10
2009,07,03,07,56,19.20
2009,07,03,07,57,19.30
2009,07,03,07,58,19.40
2009,07,03,07,59,19.40
2009,07,03,08,00,19.50
2009,07,03,08,01,19.50
2009,07,03,08,02,19.50
2009,07,03,08,03,19.50
2009,07,03,08,04,19.50
2009,07,03,08,05,19.50
2009,07,03,08,06,19.50
2009,07,03,08,07,19.50
2009,07,03,08,08,19.60
2009,07,03,08,09,19.60
2009,07,03,08,10,19.60
2009,07,03,08,11,19.70
2009,07,03,08,12,19.70
2009,07,03,08,13,19.70
2009,07,03,08,14,19.70
2009,07,03,08,15,19.80
2009,07,03,08,16,19.80
2009,07,03,08,17,19.80
2009,07,03,08,18,19.80
2009,07,03,08,19,19.90
2009,07,03,08,20,19.90
2009,07,03,08,21,20.00
2009,07,03,08,22,20.10
2009,07,03,08,23,20.10
2009,07,03,08,24,20.20
2009,07,03,08,25,20.30
2009,07,03,08,26,20.40
2009,07,03,08,27,20.50
2009,07,03,08,28,20.60
2009,07,03,08,29,20.70
2009,07,03,08,30,20.80
2009,07,03,08,31,20.90
2009,07,03,08,32,21.00
2009,07,03,08,33,21.10
2009,07,03,08,34,21.20
2009,07,03,08,35,21.30
2009,07,03,08,36,21.30
2009,07,03,08,37,21.30
2009,07,03,08,38,21.30
2009,07,03,08,39,21.30
2009,07,03,08,40,21.30
2009,07,03,08,41,21.30
2009,07,03,08,42,21.30
2009,07,03,08,43,21.30
2009,07,03,08,44,21.30
2009,07,03,08,45,21.40
2009,07,03,08,46,21.40
2009,07,03,08,47,21.40
2009,07,03,08,48,21.50
2009,07,03,08,49,21.60
2009,07,03,08,50,21.60
2009,07,03,08,51,21.60
2009,07,03,08,52,21.70
2009,07,03,08,53,21.80
2009,07,03,08,54,21.90
2009,07,03,08,55,22.00
2009,07,03,08,56,22.20
2009,07,03,08,57,22.30
2009,07,03,08,58,22.50
2009,07,03,08,59,22.60
2009,07,03,09,00,22.60
2009,07,03,09,01,22.50
2009,07,03,09,02,22.30
2009,07,03,09,03,22.20
2009,07,03,09,04,22.10
2009,07,03,09,05,22.10
2009,07,03,09,06,22.10
2009,07,03,09,07,22.00
2009,07,03,09,08,21.90
2009,07,03,09,09,21.70
2009,07,03,09,10,21.60
2009,07,03,09,11,21.60
2009,07,03,09,12,21.60
2009,07,03,09,13,21.60
2009,07,03,09,14,21.60
2009,07,03,09,15,21.60
2009,07,03,09,16,21.60
2009,07,03,09,17,21.60
2009,07,03,09,18,21.60
2009,07,03,09,19,21.50
2009,07,03,09,20,21.40
2009,07,03,09,21,21.30
2009,07,03,09,22,21.30
2009,07,03,09,23,21.30
2009,07,03,09,24,21.30
2009,07,03,09,25,21.30
2009,07,03,09,26,21.30
2009,07,03,09,27,21.30
2009,07,03,09,28,21.30
2009,07,03,09,29,21.30
2009,07,03,09,30,21.30
2009,07,03,09,31,21.30
2009,07,03,09,32,21.30
2009,07,03,09,33,21.30
2009,07,03,09,34,21.30
2009,07,03,09,35,21.30
2009,07,03,09,36,21.40
2009,07,03,09,37,21.40
2009,07,03,09,38,21.40
2009,07,03,09,39,21.30
2009,07,03,09,40,21.30
2009,07,03,09,41,21.30
2009,07,03,09,42,21.30
2009,07,03,09,43,21.30
2009,07,03,09,44,21.30
2009,07,03,09,45,21.40
2009,07,03,09,46,21.40
2009,07,03,09,47,21.50
2009,07,03,09,48,21.60
2009,07,03,09,49,21.60
2009,07,03,09,50,21.60
2009,07,03,09,51,21.60
2009,07,03,09,52,21.60
2009,07,03,09,53,21.60
2009,07,03,09,54,21.60
2009,07,03,09,55,21.60
2009,07,03,09,56,21.60
2009,07,03,09,57,21.50
2009,07,03,09,58,21.40
2009,07,03,09,59,21.40
2009,07,03,10,00,21.50
2009,07,03,10,01,21.60
2009,07,03,10,02,21.60
2009,07,03,10,03,21.60
2009,07,03,10,04,21.60
2009,07,03,10,05,21.50
2009,07,03,10,06,21.40
2009,07,03,10,07,21.30
2009,07,03,10,08,21.30
2009,07,03,10,09,21.30
2009,07,03,10,10,21.30
2009,07,03,10,11,21.30
2009,07,03,10,12,21.30
2009,07,03,10,13,21.30
2009,07,03,10,14,21.40
2009,07,03,10,15,21.40
2009,07,03,10,16,21.40
2009,07,03,10,17,21.30
2009,07,03,10,18,21.30
2009,07,03,10,19,21.30
2009,07,03,10,20,21.30
2009,07,03,10,21,21.30
2009,07,03,10,22,21.30
2009,07,03,10,23,21.20
2009,07,03,10,24,21.10
2009,07,03,10,25,21.10
2009,07,03,10,26,21.10
2009,07,03,10,27,21.30
2009,07,03,10,28,21.30
2009,07,03,10,29,21.30
2009,07,03,10,30,21.10
2009,07,03,10,31,21.00
2009,07,03,10,32,20.80
2009,07,03,10,33,20.70
2009,07,03,10,34,20.60
2009,07,03,10,35,20.50
2009,07,03,10,36,20.40
2009,07,03,10,37,20.50
2009,07,03,10,38,20.50
2009,07,03,10,39,20.60
2009,07,03,10,40,20.60
2009,07,03,10,41,20.60
2009,07,03,10,42,20.70
2009,07,03,10,43,20.60
2009,07,03,10,44,20.50
2009,07,03,10,45,20.60
2009,07,03,10,46,20.60
2009,07,03,10,47,20.80
2009,07,03,10,48,20.90
2009,07,03,10,49,20.90
2009,07,03,10,50,20.80
2009,07,03,10,51,20.60
2009,07,03,10,52,20.40
2009,07,03,10,53,20.20
2009,07,03,10,54,20.00
2009,07,03,10,55,19.90
2009,07,03,10,56,19.90
2009,07,03,10,57,19.90
2009,07,03,10,58,20.00
2009,07,03,10,59,20.10
2009,07,03,11,00,20.10
2009,07,03,11,01,20.20
2009,07,03,11,02,20.20
2009,07,03,11,03,20.30
2009,07,03,11,04,20.30
2009,07,03,11,05,20.40
2009,07,03,11,06,20.50
2009,07,03,11,07,20.50
2009,07,03,11,08,20.50
2009,07,03,11,09,20.50
2009,07,03,11,10,20.60
2009,07,03,11,11,20.60
2009,07,03,11,12,20.60
2009,07,03,11,13,20.70
2009,07,03,11,14,20.80
2009,07,03,11,15,21.00
2009,07,03,11,16,21.00
2009,07,03,11,17,21.00
2009,07,03,11,18,21.00
2009,07,03,11,19,20.90
2009,07,03,11,20,20.80
2009,07,03,11,21,20.80
2009,07,03,11,22,20.90
2009,07,03,11,23,21.00
2009,07,03,11,24,21.00
2009,07,03,11,25,21.10
2009,07,03,11,26,21.20
2009,07,03,11,27,21.20
2009,07,03,11,28,21.10
2009,07,03,11,29,21.10
2009,07,03,11,30,21.20
2009,07,03,11,31,21.20
2009,07,03,11,32,21.30
2009,07,03,11,33,21.30
2009,07,03,11,34,21.40
2009,07,03,11,35,21.40
2009,07,03,11,36,21.60
2009,07,03,11,37,21.60
2009,07,03,11,38,21.50
2009,07,03,11,39,21.40
2009,07,03,11,40,21.30
2009,07,03,11,41,21.50
2009,07,03,11,42,21.60
2009,07,03,11,43,21.70
2009,07,03,11,44,21.90
2009,07,03,11,45,21.90
2009,07,03,11,46,21.90
2009,07,03,11,47,22.00
2009,07,03,11,48,22.00
2009,07,03,11,49,21.90
2009,07,03,11,50,21.80
2009,07,03,11,51,21.70
2009,07,03,11,52,21.60
2009,07,03,11,53,21.60
2009,07,03,11,54,21.60
2009,07,03,11,55,21.60
2009,07,03,11,56,21.60
2009,07,03,11,57,21.60
2009,07,03,11,58,21.60
2009,07,03,11,59,21.60
2009,07,03,12,00,21.60
2009,07,03,12,01,21.60
2009,07,03,12,02,21.60
2009,07,03,12,03,21.60
2009,07,03,12,04,21.60
2009,07,03,12,05,21.60
2009,07,03,12,06,21.80
2009,07,03,12,07,21.90
2009,07,03,12,08,22.00
2009,07,03,12,09,22.10
2009,07,03,12,10,22.10
2009,07,03,12,11,22.00
2009,07,03,12,12,21.90
2009,07,03,12,13,21.70
2009,07,03,12,14,21.70
2009,07,03,12,15,21.60
2009,07,03,12,16,21.60
2009,07,03,12,17,21.60
2009,07,03,12,18,21.60
2009,07,03,12,19,21.70
2009,07,03,12,20,21.70
2009,07,03,12,21,21.70
2009,07,03,12,22,21.80
2009,07,03,12,23,21.90
2009,07,03,12,24,21.90
2009,07,03,12,25,21.90
2009,07,03,12,26,21.90
2009,07,03,12,27,21.90
2009,07,03,12,28,22.00
2009,07,03,12,29,22.00
2009,07,03,12,30,22.00
2009,07,03,12,31,22.00
2009,07,03,12,32,22.00
2009,07,03,12,33,22.00
2009,07,03,12,34,22.10
2009,07,03,12,35,22.20
2009,07,03,12,36,22.30
2009,07,03,12,37,22.30
2009,07,03,12,38,22.40
2009,07,03,12,39,22.50
2009,07,03,12,40,22.60
2009,07,03,12,41,22.60
2009,07,03,12,42,22.60
2009,07,03,12,43,22.50
2009,07,03,12,44,22.50
2009,07,03,12,45,22.60
2009,07,03,12,46,22.70
2009,07,03,12,47,22.90
2009,07,03,12,48,23.00
2009,07,03,12,49,23.10
2009,07,03,12,50,23.10
2009,07,03,12,51,23.10
2009,07,03,12,52,23.10
2009,07,03,12,53,23.00
2009,07,03,12,54,22.90
2009,07,03,12,55,22.90
2009,07,03,12,56,22.80
2009,07,03,12,57,22.70
2009,07,03,12,58,22.70
2009,07,03,12,59,22.70
2009,07,03,13,00,22.70
2009,07,03,13,01,22.80
2009,07,03,13,02,23.00
2009,07,03,13,03,23.20
2009,07,03,13,04,23.30
2009,07,03,13,05,23.40
2009,07,03,13,06,23.50
2009,07,03,13,07,23.60
2009,07,03,13,08,23.70
2009,07,03,13,09,23.60
2009,07,03,13,10,23.70
2009,07,03,13,11,23.70
2009,07,03,13,12,23.70
2009,07,03,13,13,23.60
2009,07,03,13,14,23.60
2009,07,03,13,15,23.60
2009,07,03,13,16,23.60
2009,07,03,13,17,23.60
2009,07,03,13,18,23.70
2009,07,03,13,19,23.80
2009,07,03,13,20,23.80
2009,07,03,13,21,23.90
2009,07,03,13,22,23.80
2009,07,03,13,23,23.80
2009,07,03,13,24,23.80
2009,07,03,13,25,23.70
2009,07,03,13,26,23.70
2009,07,03,13,27,23.80
2009,07,03,13,28,23.80
2009,07,03,13,29,23.90
2009,07,03,13,30,23.90
2009,07,03,13,31,24.00
2009,07,03,13,32,24.10
2009,07,03,13,33,24.40
2009,07,03,13,34,24.50
2009,07,03,13,35,24.70
2009,07,03,13,36,24.60
2009,07,03,13,37,24.60
2009,07,03,13,38,24.50
2009,07,03,13,39,24.50
2009,07,03,13,40,24.50
2009,07,03,13,41,24.50
2009,07,03,13,42,24.20
2009,07,03,13,43,24.00
2009,07,03,13,44,23.80
2009,07,03,13,45,23.60
2009,07,03,13,46,23.60
2009,07,03,13,47,23.50
2009,07,03,13,48,23.40
2009,07,03,13,49,23.30
2009,07,03,13,50,23.20
2009,07,03,13,51,23.10
2009,07,03,13,52,23.10
2009,07,03,13,53,23.10
2009,07,03,13,54,23.10
2009,07,03,13,55,23.10
2009,07,03,13,56,23.10
2009,07,03,13,57,23.20
2009,07,03,13,58,23.30
2009,07,03,13,59,23.30
2009,07,03,14,00,23.20
2009,07,03,14,01,23.20
2009,07,03,14,02,23.10
2009,07,03,14,03,23.00
2009,07,03,14,04,22.90
2009,07,03,14,05,22.90
2009,07,03,14,06,22.90
2009,07,03,14,07,23.10
2009,07,03,14,08,23.10
2009,07,03,14,09,23.10
2009,07,03,14,10,23.20
2009,07,03,14,11,23.20
2009,07,03,14,12,23.20
2009,07,03,14,13,23.10
2009,07,03,14,14,23.10
2009,07,03,14,15,23.10
2009,07,03,14,16,23.10
2009,07,03,14,17,23.10
2009,07,03,14,18,23.10
2009,07,03,14,19,23.10
2009,07,03,14,20,23.20
2009,07,03,14,21,23.20
2009,07,03,14,22,23.30
2009,07,03,14,23,23.60
2009,07,03,14,24,23.80
2009,07,03,14,25,24.00
2009,07,03,14,26,24.10
2009,07,03,14,27,24.30
2009,07,03,14,28,24.40
2009,07,03,14,29,24.40
2009,07,03,14,30,24.50
2009,07,03,14,31,24.40
2009,07,03,14,32,24.20
2009,07,03,14,33,24.10
2009,07,03,14,34,24.00
2009,07,03,14,35,23.90
2009,07,03,14,36,23.80
2009,07,03,14,37,23.80
2009,07,03,14,38,23.80
2009,07,03,14,39,23.70
2009,07,03,14,40,23.80
2009,07,03,14,41,23.80
2009,07,03,14,42,23.70
2009,07,03,14,43,23.70
2009,07,03,14,44,23.70
2009,07,03,14,45,23.70
2009,07,03,14,46,23.70
2009,07,03,14,47,23.70
2009,07,03,14,48,23.70
2009,07,03,14,49,23.70
2009,07,03,14,50,23.80
2009,07,03,14,51,23.80
2009,07,03,14,52,23.80
2009,07,03,14,53,23.80
2009,07,03,14,54,23.80
2009,07,03,14,55,23.70
2009,07,03,14,56,23.80
2009,07,03,14,57,23.80
2009,07,03,14,58,23.90
2009,07,03,14,59,24.00
2009,07,03,15,00,24.10
2009,07,03,15,01,24.10
2009,07,03,15,02,24.10
2009,07,03,15,03,24.20
2009,07,03,15,04,24.40
2009,07,03,15,05,24.50
2009,07,03,15,06,24.50
2009,07,03,15,07,24.60
2009,07,03,15,08,24.60
2009,07,03,15,09,24.60
2009,07,03,15,10,24.70
2009,07,03,15,11,24.70
2009,07,03,15,12,24.70
2009,07,03,15,13,24.70
2009,07,03,15,14,24.60
2009,07,03,15,15,24.60
2009,07,03,15,16,24.60
2009,07,03,15,17,24.60
2009,07,03,15,18,24.50
2009,07,03,15,19,24.40
2009,07,03,15,20,24.30
2009,07,03,15,21,24.20
2009,07,03,15,22,24.30
2009,07,03,15,23,24.30
2009,07,03,15,24,24.40
2009,07,03,15,25,24.40
2009,07,03,15,26,24.40
2009,07,03,15,27,24.40
2009,07,03,15,28,24.30
2009,07,03,15,29,24.20
2009,07,03,15,30,24.10
2009,07,03,15,31,24.10
2009,07,03,15,32,24.10
2009,07,03,15,33,24.10
2009,07,03,15,34,24.10
2009,07,03,15,35,24.10
2009,07,03,15,36,24.20
2009,07,03,15,37,24.30
2009,07,03,15,38,24.40
2009,07,03,15,39,24.50
2009,07,03,15,40,24.50
2009,07,03,15,41,24.50
2009,07,03,15,42,24.60
2009,07,03,15,43,24.70
2009,07,03,15,44,24.70
2009,07,03,15,45,24.60
2009,07,03,15,46,24.60
2009,07,03,15,47,24.60
2009,07,03,15,48,24.70
2009,07,03,15,49,24.80
2009,07,03,15,50,24.80
2009,07,03,15,51,24.90
2009,07,03,15,52,24.90
2009,07,03,15,53,24.90
2009,07,03,15,54,24.90
2009,07,03,15,55,24.90
2009,07,03,15,56,24.90
2009,07,03,15,57,24.90
2009,07,03,15,58,25.00
2009,07,03,15,59,24.90
2009,07,03,16,00,24.90
2009,07,03,16,01,24.80
2009,07,03,16,02,24.80
2009,07,03,16,03,24.80
2009,07,03,16,04,24.70
2009,07,03,16,05,24.50
2009,07,03,16,06,24.40
2009,07,03,16,07,24.40
2009,07,03,16,08,24.30
2009,07,03,16,09,24.30
2009,07,03,16,10,24.30
2009,07,03,16,11,24.40
2009,07,03,16,12,24.40
2009,07,03,16,13,24.30
2009,07,03,16,14,24.30
2009,07,03,16,15,24.30
2009,07,03,16,16,24.30
2009,07,03,16,17,24.30
2009,07,03,16,18,24.30
2009,07,03,16,19,24.30
2009,07,03,16,20,24.30
2009,07,03,16,21,24.30
2009,07,03,16,22,24.40
2009,07,03,16,23,24.40
2009,07,03,16,24,24.30
2009,07,03,16,25,24.10
2009,07,03,16,26,24.10
2009,07,03,16,27,24.10
2009,07,03,16,28,24.10
2009,07,03,16,29,24.10
2009,07,03,16,30,23.90
2009,07,03,16,31,23.80
2009,07,03,16,32,23.70
2009,07,03,16,33,23.70
2009,07,03,16,34,23.80
2009,07,03,16,35,23.80
2009,07,03,16,36,23.90
2009,07,03,16,37,23.90
2009,07,03,16,38,23.90
2009,07,03,16,39,24.00
2009,07,03,16,40,24.10
2009,07,03,16,41,24.10
2009,07,03,16,42,24.10
2009,07,03,16,43,24.10
2009,07,03,16,44,24.20
2009,07,03,16,45,24.30
2009,07,03,16,46,24.50
2009,07,03,16,47,24.50
2009,07,03,16,48,24.60
2009,07,03,16,49,24.70
2009,07,03,16,50,24.80
2009,07,03,16,51,24.90
2009,07,03,16,52,25.00
2009,07,03,16,53,25.00
2009,07,03,16,54,24.90
2009,07,03,16,55,24.80
2009,07,03,16,56,24.80
2009,07,03,16,57,24.70
2009,07,03,16,58,24.60
2009,07,03,16,59,24.60
2009,07,03,17,00,24.50
2009,07,03,17,01,24.50
2009,07,03,17,02,24.50
2009,07,03,17,03,24.60
2009,07,03,17,04,24.60
2009,07,03,17,05,24.60
2009,07,03,17,06,24.60
2009,07,03,17,07,24.70
2009,07,03,17,08,24.70
2009,07,03,17,09,24.80
2009,07,03,17,10,24.80
2009,07,03,17,11,24.90
2009,07,03,17,12,25.00
2009,07,03,17,13,25.10
2009,07,03,17,14,25.30
2009,07,03,17,15,25.40
2009,07,03,17,16,25.50
2009,07,03,17,17,25.60
2009,07,03,17,18,25.80
2009,07,03,17,19,25.90
2009,07,03,17,20,25.90